Regional Weather Roundup
Issued by NWS New Orleans/Baton Rouge, LA

Home | Current Version | Previous Version | Text Only | Print | Product List | Glossary On
Versions: 1 2 3 4 5 6 7 8 9 10 11 12 13 14 15 16 17 18 19 20 21 22 23 24 25 26 27
000
ASUS44 KLIX 201312
RWRLIX
NEW ORLEANS REGIONAL WEATHER ROUNDUP
NATIONAL WEATHER SERVICE NEW ORLEANS LA
700 AM CST SAT JAN 20 2018

NOTE: "FAIR" INDICATES FEW OR NO CLOUDS BELOW 12,000 FEET WITH NO
      SIGNIFICANT WEATHER AND/OR OBSTRUCTIONS TO VISIBILITY.
      SKY/WX - SKY CONDITION AND SIGNIFICANT WEATHER.
      TMP - AIR TEMPERATURE.     DP    - DEWPOINT TEMPERATURE.
      RH  - RELATIVE HUMIDITY.   PRES  - PRESSURE.
      HI  - HEAT INDEX.          WCI   - WIND CHILL INDEX.

*  THESE STATIONS ARE NOT NWS OR FAA STATIONS AND ARE NOT UNDER
   NWS QUALITY CONTROL.

LAZ038-040-048-061>063-065>067-069-201400-
SOUTHEAST LOUISIANA

CITY           SKY/WX    TMP DP  RH WIND       PRES   REMARKS
N.O. INTL ARPT CLOUDY    50  43  77 E8        30.23R
N.O. LAKEFRONT FAIR      50  43  77 E8        30.24R
N.O. DOWNTOWN* LGT RAIN  54  46  74 VRB5      30.24R
RESERVE*       DRIZZLE   48  39  72 E5        30.22S
SLIDELL        FAIR      46  38  73 CALM      30.24R
BATON ROUGE    FAIR      42  35  76 E6        30.21R
BOOTHVILLE     CLOUDY    52  49  89 E5        30.24R
BELLE CHASSE   MOCLDY    51  48  89 E6        30.23R
BOGALUSA*      FAIR      39  35  85 CALM      30.26R
GALLIANO*      CLOUDY    52  46  80 E3        30.21S
NEW ROADS*     CLOUDY    44  36  72 E7        30.21R
GONZALES*      CLOUDY    45  38  77 CALM      30.21R
HAMMOND*       FAIR      36  34  93 CALM      30.23S
HOUMA*         MOCLDY    50  48  93 E6        30.21R
PORT FOURCHON* CLOUDY    55  54  94 NE5       30.21S

$$

MSZ070-080>082-201400-
SOUTHERN MISSISSIPPI

CITY           SKY/WX    TMP DP  RH WIND       PRES   REMARKS
MCCOMB         FAIR      43  29  57 CALM      30.22R
GULFPORT       MOCLDY    46  36  68 CALM      30.26R
BILOXI         CLOUDY    46  36  67 E6        30.26R
PASCAGOULA     MOCLDY    42  34  73 SE3       30.28R
STENNIS ARPT*  PTCLDY    43  39  87 E3        30.26

$$

COASTAL OBSERVATIONS
LAKE AND NEARSHORE STATIONS

STATION/POSITION TIME  SKY/WX   TEMP    WIND        PRES    WAVE
                                AIR SEA DIR/SP/G            HT/PER
                 (UTC)          (F)     (DEG/KT/KT) (MB)    (FT/S)
PASCAGOULA       1248            47      80/  9/ 11 1024.7
WAVELAND YACHT   1248            45 42   60/  2/  3 1024.3
GRAND ISLE       1248            57 54   80/  6/  8 1023.2
SOUTHWEST PASS   1248            61 48  120/ 10/ 12 1023.8
NEW CANAL        1248            49 44  140/  1/  5 1023.6
SHELL BEACH      1248            48 46   90/  8/  8 1023.6

OFFSHORE STATIONS

STATION/POSITION TIME  SKY/WX   TEMP    WIND        PRES    WAVE
                                AIR SEA DIR/SP/G            HT/PER
                 (UTC)          (F)     (DEG/KT/KT) (MB)    (FT/S)
64 S DAUPHIN ISL 1250            63 68  120/  8/ 12 1024.9    2/ 4

$$





USA.gov is the U.S. government's official web portal to all federal, state and local government web resources and services.